Wind_Speed
41 43 44 41 41 40 37 36 28 27 24 27 28 26 28 30 32 33 33 31 30 26
44 46 48 45 42 42 39 35 31 30 28 27 28 27 26 27 31 32 31 31 30 26
44 46 48 49 46 45 41 40 37 30 31 28 26 26 27 25 24 28 30 29 26 29
45 46 50 52 49 44 38 42 37 34 31 30 26 27 26 25 25 28 31 30 30 29
43 49 51 49 40 42 35 34 36 31 30 28 27 27 26 26 29 31 31 31 31 32
48 44 49 53 34 32 44 37 36 33 27 26 26 25 24 28 29 30 30 28 29 26
44 54 47 47 39 39 41 40 34 30 24 25 24 24 23 24 27 28 25 25 25 22
44 42 44 42 43 44 42 39 28 24 26 25 25 24 25 25 23 22 22 21 20 22
46 42 37 36 34 27 33 31 27 26 24 25 25 23 20 18 19 19 18 19 17 19
42 37 32 29 28 30 31 29 26 26 25 23 20 19 19 18 18 17 17 16 17 17
35 34 32 31 30 26 25 24 22 22 19 19 19 18 17 17 17 16 17 17 16 16
30 30 30 28 24 22 20 19 18 18 19 18 18 17 18 17 16 16 16 15 16 18
28 26 24 23 22 22 19 20 20 19 18 18 19 19 18 18 18 18 17 17 17 19
23 22 21 22 21 20 21 21 21 22 21 20 19 20 20 20 19 17 16 17 18 18
Wind_Direction
219 221 224 228 232 232 231 234 236 237 240 250 249 252 251 255 251 249 253 260 253 249
224 227 230 232 235 238 240 240 246 242 242 254 248 252 247 261 250 251 256 254 258 248
227 231 236 239 236 236 238 241 243 241 246 253 257 252 256 255 251 250 250 255 249 246
234 233 240 246 244 240 242 240 243 242 251 254 255 252 252 253 249 251 248 248 246 251
239 238 241 243 253 246 248 248 250 249 250 250 250 249 247 249 247 245 248 246 249 251
240 247 244 244 246 217 235 244 243 245 243 241 243 244 250 250 249 248 245 246 246 253
241 244 248 246 239 238 240 244 240 241 240 240 237 241 245 241 240 239 241 244 252 248
246 243 242 238 238 244 242 235 230 239 240 234 238 240 240 238 235 235 240 244 243 246
240 233 234 229 224 221 220 224 228 237 237 237 239 240 237 229 231 234 229 237 233 240
232 231 223 215 207 211 216 221 226 232 231 228 231 228 224 219 215 227 222 225 238 249
220 216 203 199 202 211 219 221 229 228 227 222 216 211 204 209 213 210 222 235 238 248
205 199 196 197 208 212 217 211 211 216 216 210 206 202 208 207 206 225 228 236 245 253
202 206 210 220 216 211 208 207 206 200 200 200 202 198 202 212 213 216 232 241 249 260
208 212 208 208 209 208 204 200 196 196 190 192 201 206 207 213 223 227 235 247 259 268
Height
1503 1506 1508 1510 1513 1515 1516 1518 1522 1523 1525 1528 1529 1531 1533 1534 1535 1536 1537 1538 1538 1540
1496 1499 1501 1504 1507 1508 1511 1513 1516 1518 1520 1522 1524 1525 1527 1528 1528 1530 1532 1533 1534 1535
1489 1494 1496 1498 1500 1502 1505 1509 1511 1511 1513 1515 1517 1519 1521 1521 1523 1524 1526 1527 1527 1528
1478 1483 1486 1489 1494 1496 1498 1502 1505 1505 1508 1509 1510 1512 1514 1515 1516 1518 1519 1519 1520 1521
1472 1476 1480 1481 1485 1487 1487 1495 1497 1499 1500 1501 1503 1505 1507 1508 1509 1510 1510 1512 1514 1516
1464 1468 1469 1472 1480 1477 1477 1486 1490 1491 1492 1494 1496 1499 1500 1501 1502 1502 1504 1505 1509 1510
1455 1458 1463 1467 1473 1473 1473 1478 1482 1484 1486 1488 1490 1492 1493 1495 1495 1496 1499 1502 1504 1504
1447 1452 1457 1459 1462 1465 1467 1471 1475 1477 1478 1480 1483 1484 1486 1488 1490 1493 1495 1497 1498 1500
1441 1445 1450 1452 1455 1458 1462 1466 1469 1470 1472 1473 1476 1478 1481 1483 1486 1488 1490 1491 1494 1496
1435 1439 1441 1445 1448 1452 1456 1459 1462 1464 1465 1467 1471 1474 1476 1479 1481 1484 1487 1489 1491 1492
1430 1433 1437 1441 1445 1448 1452 1455 1457 1459 1462 1465 1468 1470 1472 1475 1477 1480 1483 1484 1485 1486
1427 1432 1435 1438 1441 1444 1447 1450 1453 1456 1459 1461 1463 1466 1468 1471 1474 1476 1478 1479 1480 1480
1422 1426 1429 1432 1433 1436 1439 1443 1446 1450 1454 1457 1459 1462 1464 1466 1468 1470 1473 1474 1474 1473
1420 1423 1425 1427 1430 1433 1436 1440 1442 1445 1449 1452 1455 1457 1460 1462 1465 1467 1468 1468 1468 1468